Weather History for Sault Ste Marie, MI

Change the Weather History Date:

Saturday, March 29, 2014

  Actual Average Record
Temperature  
Mean Temperature 30 °F 32 °F  
Max Temperature 40 °F 40 °F 60 °F (1993)
Min Temperature 19 °F 23 °F -4 °F (1923)
Degree Days  
Heating Degree Days 35 33  
Month to date heating degree days 1367 1135  
Since 1 July heating degree days 8147 7261  
Cooling Degree Days 0 0  
Month to date cooling degree days 0 0  
Year to date cooling degree days 0 0  
Moisture  
Dew Point 16 °F    
Average Humidity 61    
Maximum Humidity 84    
Minimum Humidity 37    
Precipitation  
Precipitation 0.00 in 0.07 in 0.74 in (1998)
Month to date precipitation 1.71 1.80  
Year to date precipitation 5.07 5.33  
Snow  
Snow 0.00 in 0.40 in 6.30 in (1944)
Month to date snowfall 18.2 12.8  
Since 1 July snowfall 124.3 113.0  
Snow Depth 30.00 in    
Sea Level Pressure  
Sea Level Pressure 30.29 in    
Wind  
Wind Speed 4 mph (WNW)    
Max Wind Speed 13 mph    
Max Gust Speed 16 mph    
Visibility 10 miles    
Events      
T = Trace of Precipitation, MM = Missing Value Source: NWS Daily Summary

Daily Weather History Graph

Daily Weather History Graph

Search for Another Location

Airport:

Trip Planner

Search our weather history database for the weather conditions in past years. The results will help you decide how hot, cold, wet, or windy it might be!

Date:

Astronomy

Mar. 29, 2014 Rise Set
Actual Time 7:22 AM EDT 8:02 PM EDT
Civil Twilight 6:52 AM EDT 8:32 PM EDT
Nautical Twilight 6:16 AM EDT 9:08 PM EDT
Astronomical Twilight 5:38 AM EDT 9:46 PM EDT
Moon 6:35 AM EDT (3/29) 7:04 PM EDT (3/29)
Length of Visible Light 13h 40m
Length of Day
12h 39m
Waning Crescent, 2% of the Moon is Illuminated
Mar 29
Waning Crescent
Mar 30
New
Apr 7
First Quarter
Apr 15
Full
Apr 22
Last Quarter

Hourly Weather History & Observations

Time (EDT) Temp. Windchill Dew Point Humidity Pressure Visibility Wind Dir Wind Speed Gust Speed Precip Events Conditions
12:55 AM 23.0 °F 17.0 °F 17.1 °F 78% 30.30 in 10.0 mi West 4.6 mph - N/A   Clear
1:55 AM 23.0 °F 17.0 °F 17.1 °F 78% 30.26 in 10.0 mi NW 4.6 mph - N/A   Clear
2:55 AM 21.9 °F 15.7 °F 17.1 °F 82% 30.25 in 10.0 mi WNW 4.6 mph - N/A   Clear
3:55 AM 21.0 °F 14.6 °F 16.0 °F 81% 30.27 in 10.0 mi West 4.6 mph - N/A   Clear
4:55 AM 21.0 °F - 16.0 °F 81% 30.28 in 10.0 mi Calm Calm - N/A   Partly Cloudy
5:55 AM 21.0 °F 16.2 °F 16.0 °F 81% 30.27 in 10.0 mi West 3.5 mph - N/A   Overcast
6:55 AM 19.9 °F - 16.0 °F 85% 30.36 in 10.0 mi Calm Calm - N/A   Overcast
7:55 AM 19.0 °F - 16.0 °F 88% 30.33 in 10.0 mi Calm Calm - N/A   Overcast
8:55 AM 21.9 °F - 16.0 °F 78% 30.35 in 10.0 mi Calm Calm - N/A   Clear
9:55 AM 26.1 °F 21.9 °F 19.0 °F 75% 30.35 in 10.0 mi ENE 3.5 mph - N/A   Clear
10:55 AM 30.0 °F 24.1 °F 19.0 °F 64% 30.35 in 10.0 mi ESE 5.8 mph - N/A   Clear
11:55 AM 32.0 °F 28.7 °F 19.0 °F 59% 30.35 in 10.0 mi Variable 3.5 mph - N/A   Clear
12:55 PM 34.0 °F - 17.1 °F 50% 30.33 in 10.0 mi Calm Calm - N/A   Clear
1:55 PM 37.0 °F - 16.0 °F 42% 30.31 in 10.0 mi Calm Calm - N/A   Clear
2:55 PM 37.9 °F - 14.0 °F 38% 30.28 in 10.0 mi Calm Calm - N/A   Clear
3:55 PM 37.0 °F 32.4 °F 18.0 °F 46% 30.26 in 10.0 mi West 5.8 mph - N/A   Clear
4:55 PM 36.0 °F 29.0 °F 21.0 °F 55% 30.26 in 10.0 mi NW 9.2 mph - N/A   Clear
5:55 PM 35.1 °F 27.4 °F 19.0 °F 52% 30.25 in 10.0 mi NW 10.4 mph - N/A   Clear
6:55 PM 33.1 °F 25.5 °F 16.0 °F 50% 30.25 in 10.0 mi WNW 9.2 mph - N/A   Clear
7:55 PM 30.9 °F 24.3 °F 10.9 °F 43% 30.26 in 10.0 mi WNW 6.9 mph - N/A   Clear
8:55 PM 28.9 °F 22.8 °F 9.0 °F 43% 30.27 in 10.0 mi West 5.8 mph - N/A   Clear
9:55 PM 26.1 °F 21.9 °F 12.9 °F 58% 30.29 in 10.0 mi West 3.5 mph - N/A   Clear
10:55 PM 25.0 °F 20.7 °F 15.1 °F 66% 30.27 in 10.0 mi West 3.5 mph - N/A   Clear
11:55 PM 21.0 °F - 15.1 °F 78% 30.27 in 10.0 mi Calm Calm - N/A   Clear